FW2491 Weather Reports


Display with metric or nautical units.
time (UTC)temp
F
wind
direction
speed
MPH
gust
MPH
rain 1hr
in
rain 24hr
in
rain mn
in
humidity
%
barometer
mb
20260505180026 72 218 6.0 12.0 0.00 0.00 0.00 30 1015.1
20260505174523 72 198 6.0 14.0 0.00 0.00 0.00 31 1015.3
20260505173023 72 215 4.0 13.0 0.00 0.00 0.00 29 1015.8
20260505171520 71 215 5.0 17.0 0.00 0.00 0.00 31 1015.9
20260505170020 71 261 5.0 13.0 0.00 0.00 0.00 36 1016.1
20260505164519 70 244 6.0 10.0 0.00 0.00 0.00 35 1016.0
20260505163016 70 228 6.0 16.0 0.00 0.00 0.00 34 1015.9
20260505161515 70 232 5.0 10.0 0.00 0.00 0.00 35 1015.8
20260505153007 68 189 3.0 10.0 0.00 0.00 0.00 44 1016.4
20260505151509 68 187 4.0 8.0 0.00 0.00 0.00 43 1016.5
20260505124544 58 104 0.0 2.0 0.00 0.00 0.00 55 1015.7
20260505123038 55 104 1.0 3.0 0.00 0.00 0.00 57 1015.6
20260505121541 52 104 1.0 3.0 0.00 0.00 0.00 62 1015.7
20260505120046 49 113 1.0 3.0 0.00 0.00 0.00 63 1015.3
20260505114535 49 126 2.0 4.0 0.00 0.00 0.00 61 1015.4
20260505113035 50 126 2.0 3.0 0.00 0.00 0.00 59 1015.3
20260505111533 51 126 1.0 3.0 0.00 0.00 0.00 56 1014.9
20260505101538 49 313 2.0 4.0 0.00 0.00 0.00 60 1015.0
20260505100029 49 312 3.0 5.0 0.00 0.00 0.00 60 1014.8
20260505094530 49 315 4.0 5.0 0.00 0.00 0.00 60 1014.8
20260505093028 49 315 3.0 5.0 0.00 0.00 0.00 60 1014.9
20260505091526 50 311 3.0 4.0 0.00 0.00 0.00 60 1014.9
20260505090025 50 308 2.0 5.0 0.00 0.00 0.00 60 1014.8
20260505084534 50 312 4.0 6.0 0.00 0.00 0.00 60 1014.8
20260505083020 51 304 5.0 7.0 0.00 0.00 0.00 59 1014.8
20260505081518 52 299 5.0 8.0 0.00 0.00 0.00 57 1014.8
20260505080012 54 281 4.0 9.0 0.00 0.00 0.00 52 1014.8
20260505074510 55 280 3.0 7.0 0.00 0.00 0.00 50 1014.7
20260505073009 56 290 3.0 4.0 0.00 0.00 0.00 48 1014.8
20260505071507 57 289 3.0 5.0 0.00 0.00 0.00 47 1014.8
20260505070007 57 242 2.0 4.0 0.00 0.00 0.00 47 1014.9
20260505064506 57 241 2.0 4.0 0.00 0.00 0.00 48 1014.9
20260505063008 56 240 4.0 9.0 0.00 0.00 0.00 49 1015.0
20260505061502 55 272 4.0 7.0 0.00 0.00 0.00 53 1015.2
20260505060100 56 252 3.0 7.0 0.00 0.00 0.00 53 1015.2
20260505054609 56 315 3.0 5.0 0.00 0.00 0.00 52 1015.2
20260505053100 56 229 2.0 3.0 0.00 0.00 0.00 51 1015.2
20260505051553 57 229 1.0 4.0 0.00 0.00 0.00 50 1015.3
20260505041553 59 246 0.0 2.0 0.00 0.00 0.00 47 1015.3
20260505040050 59 249 1.0 2.0 0.00 0.00 0.00 46 1015.5
20260505034540 60 248 0.0 1.0 0.00 0.00 0.00 46 1015.6
20260505033040 60 248 0.0 0.0 0.00 0.00 0.00 46 1015.7
20260505031544 60 248 1.0 3.0 0.00 0.00 0.00 45 1015.7
20260505030040 60 249 0.0 2.0 0.00 0.00 0.00 46 1015.6
20260505024552 61 249 0.0 3.0 0.00 0.00 0.00 46 1015.7
20260505023039 62 249 1.0 5.0 0.00 0.00 0.00 44 1015.6
20260505021539 63 193 2.0 7.0 0.00 0.00 0.00 42 1015.4
20260505020037 64 207 2.0 7.0 0.00 0.00 0.00 42 1015.3
20260505014637 64 169 2.0 6.0 0.00 0.00 0.00 40 1015.2
20260505013035 64 205 2.0 6.0 0.00 0.00 0.00 40 1015.1
20260505011535 65 190 2.0 4.0 0.00 0.00 0.00 40 1014.9
20260505010034 65 197 2.0 7.0 0.00 0.00 0.00 40 1014.8
20260505004539 65 183 3.0 7.0 0.00 0.00 0.00 38 1014.7
20260505003032 67 190 1.0 6.0 0.00 0.00 0.00 38 1014.6
20260505001532 68 180 2.0 5.0 0.00 0.00 0.00 36 1014.5
20260505000131 69 172 2.0 5.0 0.00 0.00 0.00 36 1014.5
20260504234535 70 187 1.0 4.0 0.00 0.00 0.00 36 1014.5
20260504233038 71 184 2.0 5.0 0.00 0.00 0.00 35 1014.4
20260504231530 71 196 1.0 4.0 0.00 0.00 0.00 33 1014.4
20260504230028 71 191 2.0 7.0 0.00 0.00 0.00 32 1014.2
20260504224527 71 213 3.0 9.0 0.00 0.00 0.00 30 1014.2
20260504223037 72 196 3.0 8.0 0.00 0.00 0.00 32 1014.1
20260504221528 73 195 2.0 10.0 0.00 0.00 0.00 32 1014.2
20260504220025 73 195 2.0 9.0 0.00 0.00 0.00 30 1014.3
20260504214526 73 201 2.0 6.0 0.00 0.00 0.00 33 1014.4
20260504213036 73 175 2.0 10.0 0.00 0.00 0.00 34 1014.4
20260504211528 72 196 5.0 10.0 0.00 0.00 0.00 32 1014.4
20260504210020 72 204 4.0 10.0 0.00 0.00 0.00 34 1014.4
20260504204534 73 229 4.0 11.0 0.00 0.00 0.00 34 1014.3
20260504203023 73 174 3.0 11.0 0.00 0.00 0.00 33 1014.4
20260504201519 73 187 3.0 11.0 0.00 0.00 0.00 32 1014.5
20260504200017 74 198 4.0 9.0 0.00 0.00 0.00 32 1014.5
20260504194514 74 221 5.0 10.0 0.00 0.00 0.00 32 1014.6
20260504193015 74 172 6.0 11.0 0.00 0.00 0.00 32 1014.8
20260504191513 74 189 7.0 12.0 0.00 0.00 0.00 28 1014.9
20260504190010 74 209 3.0 11.0 0.00 0.00 0.00 31 1015.1
20260504184509 74 172 2.0 11.0 0.00 0.00 0.00 32 1015.3
20260504183008 74 139 4.0 9.0 0.00 0.00 0.00 33 1015.5
20260504181506 73 115 4.0 10.0 0.00 0.00 0.00 32 1015.7